Regional Weather Roundup
Issued by NWS

Home | Current Version | Previous Version | Graphics & Text | Print | Product List | Glossary On
Versions: 1 2 3 4 5 6 7 8 9 10 11 12 13 14 15 16 17 18 19 20 21 22 23 24 25 26 27 28 29 30 31 32 33 34 35 36 37 38 39 40 41 42 43 44 45 46 47 48 49 50
000
ASUS43 KIND 011159
RWRIN

WEATHER ROUNDUP FOR INDIANA
NATIONAL WEATHER SERVICE INDIANAPOLIS IN
800 AM EDT SAT AUG 01 2015

NOTE: "FAIR" INDICATES FEW OR NO CLOUDS BELOW 12,000 FEET WITH NO
SIGNIFICANT WEATHER AND/OR OBSTRUCTIONS TO VISIBILITY.

* - STATION DOES NOT REPORT WEATHER SUCH AS PRECIPITATION OR FOG.

+ - STATION NOT QUALITY CONTROLLED BY THE NATIONAL WEATHER SERVICE.
    USE DATA WITH CAUTION...ESPECIALLY DEWPOINT AND RELATIVE
    HUMIDITY OBSERVATIONS.

INZ001>003-010>013-019-020-011300-
NORTHWEST INDIANA

CITY           SKY/WX    TMP DP  RH WIND       PRES   REMARKS
GARY /AIRPORT/ SUNNY     66  55  68 W8        30.01R
RENSSELAER +   SUNNY     63  61  94 W5        30.03R

$$

LMZ046-743>745-011300-
SOUTHERN LAKE MICHIGAN

STATION/POSITION TIME  TEMP    WIND        PRES    WAVE
                       AIR SEA DIR/SP/G            HT
                 (UTC) (F)     (DEG/KT/KT) (MB)    (FT)
BURNS HARBOR     1100   70     230/  8/ 10 1015.9R
MICHIGAN CITY    1100   72     260/ 15/ 17   N/A
5NW MICH CITY    1100   73 74  300/ 12/ 16   N/A     3

$$

INZ004-005-014>016-021>024-011300-
NORTH CENTRAL INDIANA

CITY           SKY/WX    TMP DP  RH WIND       PRES   REMARKS
GOSHEN         SUNNY     62  58  86 SW3       29.99R
6HR MIN TEMP:  58; 6HR MAX TEMP:  62;

SOUTH BEND     SUNNY     65  60  84 CALM      29.99S
6HR MIN TEMP:  59; 6HR MAX TEMP:  65;


$$

INZ006>009-017-018-025>027-011300-
NORTHEAST INDIANA

CITY           SKY/WX    TMP DP  RH WIND       PRES   REMARKS
ANGOLA *+      SUNNY     64  57  77 CALM      29.97S
FORT WAYNE     MOSUNNY   64  58  80 W7        29.99R
6HR MIN TEMP:  60; 6HR MAX TEMP:  64;


$$

INZ028-029-035-036-043>045-051>053-011300-
WEST CENTRAL INDIANA

CITY           SKY/WX    TMP DP  RH WIND       PRES   REMARKS
CRAWFORDSVL +  SUNNY     59  59 100 CALM        N/A
6HR MIN TEMP:  55; 6HR MAX TEMP:  61;

GREENCASTLE +  SUNNY     64  55  72 CALM      30.03S
LAFAYETTE      SUNNY     61  60  97 CALM      30.02R
6HR MIN TEMP:  57; 6HR MAX TEMP:  63;

TERRE HAUTE    SUNNY     63  59  87 CALM      30.03R
6HR MIN TEMP:  58; 6HR MAX TEMP:  67;


$$

INZ030>032-037>040-046>048-054>057-064-065-011300-
CENTRAL INDIANA

CITY           SKY/WX    TMP DP  RH WIND       PRES   REMARKS
COLUMBUS       MOSUNNY   64  59  82 CALM      30.01R
GREENWOOD *+   SUNNY     64  59  82 CALM      30.02R
INDIANAPOLIS   MOSUNNY   65  58  78 NW8       30.00R
6HR MIN TEMP:  63; 6HR MAX TEMP:  71;

-EAGLE CREEK   SUNNY     66  58  75 NW9       30.01R
6HR MIN TEMP:  65; 6HR MAX TEMP:  70;

KOKOMO *+      SUNNY     63  55  77 W6        30.02R
6HR MIN TEMP:  59; 6HR MAX TEMP:  63;

MT COMFORT *+  SUNNY     64 N/A N/A CALM      30.01S
SHELBYVILLE    SUNNY     66  61  84 NW3       30.00R
6HR MIN TEMP:  62; 6HR MAX TEMP:  68;


$$

INZ033-034-041-042-049-050-058-059-011300-
EAST CENTRAL INDIANA

CITY           SKY/WX    TMP DP  RH WIND       PRES   REMARKS
MUNCIE         SUNNY     62  59  90 NW6       30.00R
6HR MIN TEMP:  58; 6HR MAX TEMP:  64;


$$

INZ060-061-067>069-081>083-085>088-011300-
SOUTHWEST INDIANA

CITY           SKY/WX    TMP DP  RH WIND       PRES   REMARKS
EVANSVILLE     SUNNY     75  65  70 N5        30.03R
6HR MIN TEMP:  71; 6HR MAX TEMP:  76;

HUNTINGBURG *+ SUNNY     70  64  83 CALM      30.02S
6HR MIN TEMP:  66; 6HR MAX TEMP:  72;


$$

INZ062-063-066-070>080-084-089>092-011300-
SOUTH CENTRAL AND SOUTHEAST INDIANA

CITY           SKY/WX    TMP DP  RH WIND       PRES   REMARKS
BLOOMINGTON    SUNNY     66  61  84 CALM      30.02S
6HR MIN TEMP:  61; 6HR MAX TEMP:  66;

MADISON *+     SUNNY     64  63  94 CALM      30.03S
SEYMOUR +      SUNNY     70  63  78 CALM      30.01R

$$




USA.gov is the U.S. government's official web portal to all federal, state and local government web resources and services.